{"data":{"norad_id":64417,"epoch":"2026-09-20T12:51:49.720896Z","epoch_age_seconds":132008,"freshness":"FRESH","line1":"1 64417U 25129F   26263.53599214  .00007677  00000+0  27115-3 0  9993","line2":"2 64417  70.0006 300.7790 0003977 283.8900  76.1833 15.29588698 70476","mean_motion":15.29588698,"eccentricity":0.0003977,"inclination_deg":70.0006,"raan_deg":300.779,"arg_perigee_deg":283.89,"mean_anomaly_deg":76.1833,"bstar":0.00027115,"rev_number":7047,"period_min":94.142955023325,"perigee_km":474.31461060171,"apogee_km":479.76721911519,"semimajor_km":6855.1779148584,"source":"CELESTRAK","updated_at":"2026-09-21T09:00:35.346823Z"}}